Location: Unspecified
(37.6100°N, 2.7800°W)
Time: 10:18:31
(UTC+00:00)

ISS - Visible Passes

Search period start: 21 August 2018 00:00
Search period end: 31 August 2018 00:00
Orbit: 402 x 409 km, 51.6° (Epoch: 21 August)

Date Brightness Start Highest point End Pass type
(mag) Time Alt. Az. Time Alt. Az. Time Alt. Az.
27 Aug -1.4 04:53:55 10° S 04:56:17 19° SE 04:58:39 10° E visible
29 Aug -3.2 04:45:31 12° SSW 04:48:26 50° SE 04:51:37 10° ENE visible
30 Aug -2.1 03:55:53 23° SSE 03:56:28 24° SE 03:59:11 10° ENE visible
